Hourly Data Report for July 28, 2021

FLIN FLON
MANITOBA
Current Station Operator: ECCC - MSC

54°41'00.000" N
101°41'00.000" W
303.90 m
5050919
71954
WFO

Download Data

Hourly Data (July 2021)
Hourly Data Report for July 28, 2021
TIME
LST
Temp Definition
°C
Dew Point Definition
°C
Rel Hum Definition
%
Precip. Amount Definition
mm

Wind Dir Definition
10's deg

Wind Spd Definition
km/h
Visibility Definition
km
Stn Press Definition
kPa
Hmdx Definition


Wind Chill Definition


Weather Definition


00:00 16.0 13.1 83 0.0 28 6   97.64     LegendNANA
01:00 16.4 12.2 76 0.0 29 10   97.67     LegendNANA
02:00 16.1 12.4 78 0.0 32 13   97.71     LegendNANA
03:00 15.7 11.9 78 0.0 33 14   97.79     LegendNANA
04:00 15.0 12.1 83 0.0 33 10   97.87     LegendNANA
05:00 14.7 12.0 84 0.0 33 14   97.96     LegendNANA
06:00 15.0 12.2 83 0.0 34 13   98.03     LegendNANA
07:00 16.4 12.0 75 0.0 35 16   98.08     LegendNANA
08:00 17.5 11.9 70 0.0 36 18   98.14     LegendNANA
09:00 18.2 9.5 57 0.0 35 21   98.19     LegendNANA
10:00 19.0 10.5 58 0.0 35 21   98.25     LegendNANA
11:00 18.5 9.4 55 0.0 34 20   98.30     LegendNANA
12:00 20.1 8.8 48 0.0 35 20   98.34     LegendNANA
13:00 20.9 9.2 47 0.0 34 17   98.36     LegendNANA
14:00 20.6 7.2 42 0.0 35 18   98.38     LegendNANA
15:00 21.7 8.4 42 0.0 35 15   98.40     LegendNANA
16:00 21.1 7.1 40 0.0 31 18   98.41     LegendNANA
17:00 21.2 7.1 40 0.0 32 16   98.39     LegendNANA
18:00 21.0 7.3 41 0.0 33 15   98.40     LegendNANA
19:00 20.5 7.1 42 0.0 33 13   98.40     LegendNANA
20:00 19.3 6.9 45 0.0 36 11   98.41     LegendNANA
21:00 16.4 7.8 57 0.0 36 5   98.43     LegendNANA
22:00 14.6 8.0 65 0.0   0   98.45     LegendNANA
23:00 13.1 8.7 75 0.0 2 1   98.47     LegendNANA

Notes on Data Quality.

Legend

  • E = Estimated
  • M = Missing
  • NA = Not Available*
  • [empty] = Indicates an unobserved value
Date modified: